Zurück zum Katalog

THOR ABLESTAR R/B

AktivLEO
NORAD 204·ROCKET BODY·🇺🇸 United States

Gestartet Nov 15, 1961 von Cape Canaveral Space Force Station

Loading…

Nächste Überflüge (nächste 24 Stunden)

TLE

AktuellSource: Space-Track

Epoche: Sep 5, 2026, 08:08 UTC

1 00204U 61031C   26248.33904777  .00000049  00000-0  29240-4 0  9993
2 00204  32.4438  15.4006 0098566 202.4091 157.2205 13.65086596233986

Verfolge THOR ABLESTAR R/B in Echtzeit mit AllMySat

Download on the App Store